Location: Champseau
(45.8333°N, 1.7667°E)
Time: 17:35:30
(UTC+00:00)

ARIANE 5 R/B - Pass Details

Date: 18 April 2021
Orbit: 620 x 656 km, 98.1° (Epoch: 06 May)

Event Time Altitude Azimuth Distance (km) Brightness Sun altitude
Exits shadow 21:46:52 39° 253° (WSW) 964 3.6 -26.4°
Maximum altitude 21:47:06 39° 262° (W) 958 3.6 -26.5°
Drops below altitude 10° 21:51:15 10° 332° (NNW) 2,025 6.2 -26.9°
Sets 21:53:34 0° 340° (NNW) 2,932 7.2 -27.1°
